Location: *
(38.4303°S, 157.0822°W)
Time: 13:36:52
(UTC+00:00)

Cosmos 2219 Rocket - Pass Details

Date: 21 May 2024
Orbit: 826 x 847 km, 71.0° (Epoch: 22 June)

Event Time Altitude Azimuth Distance (km) Brightness Sun altitude
Rises 16:22:35 0° 335° (NNW) 3,399 5.2 -13.0°
Reaches altitude 10° 16:25:02 10° 333° (NNW) 2,471 4.5 -12.5°
Maximum altitude 16:30:43 75° 247° (WSW) 885 2.2 -11.4°
Drops below altitude 10° 16:36:27 10° 161° (SSE) 2,493 4.7 -10.4°
Sets 16:38:56 0° 159° (SSE) 3,432 5.4 -9.9°
